Weather History for Valparaiso, IN

Change the Weather History Date:

Thursday, April 3, 2014

  Actual Average Record
Temperature  
Mean Temperature 40 °F 45 °F  
Max Temperature 44 °F 55 °F 80 °F (2012)
Min Temperature 36 °F 34 °F 20 °F (2013)
Degree Days  
Heating Degree Days 25 21  
Month to date heating degree days 68 63  
Since 1 July heating degree days 6517 5640  
Cooling Degree Days 0 0  
Month to date cooling degree days 0 0  
Year to date cooling degree days 0 0  
Moisture  
Dew Point 37 °F    
Average Humidity 96    
Maximum Humidity 100    
Minimum Humidity 73    
Precipitation  
Precipitation 1.50 in 0.10 in 1.50 in (2014)
Month to date precipitation 1.50 0.28  
Year to date precipitation 4.92 5.93  
Sea Level Pressure  
Sea Level Pressure 29.86 in    
Wind  
Wind Speed 16 mph (East)    
Max Wind Speed 26 mph    
Max Gust Speed 32 mph    
Visibility 5 miles    
Events Rain    
T = Trace of Precipitation, MM = Missing Value Source: NWS Daily Summary

Daily Weather History Graph

Daily Weather History Graph

Search for Another Location

Airport:

Trip Planner

Search our weather history database for the weather conditions in past years. The results will help you decide how hot, cold, wet, or windy it might be!

Date:

Astronomy

Apr. 03, 2014 Rise Set
Actual Time 6:27 AM CDT 7:15 PM CDT
Civil Twilight 5:59 AM CDT 7:43 PM CDT
Nautical Twilight 5:26 AM CDT 8:16 PM CDT
Astronomical Twilight 4:52 AM CDT 8:51 PM CDT
Moon 8:54 AM CDT (4/3) 11:37 PM CDT (4/3)
Length of Visible Light 13h 43m
Length of Day
12h 47m
Waxing Crescent, 17% of the Moon is Illuminated
Apr 3
Waxing Crescent
Apr 7
First Quarter
Apr 15
Full
Apr 22
Last Quarter
Apr 29
New

Hourly Weather History & Observations

Time (CDT) Temp. Windchill Dew Point Humidity Pressure Visibility Wind Dir Wind Speed Gust Speed Precip Events Conditions
12:53 AM 39.9 °F 35.1 °F 32.0 °F 73% 30.04 in 10.0 mi NNE 6.9 mph - 0.00 in Rain Light Rain
1:53 AM 43.0 °F 37.7 °F 35.1 °F 74% 30.04 in 10.0 mi East 9.2 mph - 0.01 in   Overcast
2:53 AM 42.1 °F 33.9 °F 37.9 °F 85% 29.99 in 10.0 mi East 17.3 mph - 0.08 in Rain Light Rain
3:15 AM 41.0 °F 33.1 °F 37.9 °F 89% 29.99 in 9.0 mi ENE 15.0 mph - 0.00 in Rain Light Rain
3:42 AM 41.0 °F 32.8 °F 37.9 °F 89% 29.96 in 5.0 mi East 16.1 mph 27.6 mph 0.01 in Rain Light Rain
3:53 AM 41.0 °F 32.2 °F 39.0 °F 93% 29.97 in 5.0 mi East 18.4 mph - 0.01 in Rain Light Rain
4:48 AM 39.2 °F 30.5 °F 37.4 °F 93% 29.92 in 8.0 mi East 16.1 mph 24.2 mph 0.00 in   Overcast
4:53 AM 39.9 °F 31.1 °F 37.0 °F 89% 29.94 in 9.0 mi East 17.3 mph 24.2 mph 0.00 in   Overcast
5:39 AM 39.9 °F 30.0 °F 37.9 °F 93% 29.90 in 4.0 mi East 21.9 mph - 0.10 in Rain Heavy Rain
5:49 AM 39.2 °F 30.5 °F 37.4 °F 93% 29.91 in 3.0 mi East 16.1 mph 28.8 mph 0.14 in Rain Heavy Rain
5:53 AM 39.9 °F 31.8 °F 39.0 °F 97% 29.93 in 3.0 mi East 15.0 mph 27.6 mph 0.16 in Rain Rain
6:28 AM 39.0 °F 29.9 °F 37.9 °F 96% 29.93 in 3.0 mi East 17.3 mph - 0.12 in Rain Heavy Rain
6:35 AM 39.0 °F 28.5 °F 37.9 °F 96% 29.91 in 2.5 mi East 23.0 mph 28.8 mph 0.16 in Rain Heavy Rain
6:45 AM 39.0 °F 29.6 °F 37.9 °F 96% 29.90 in 2.5 mi East 18.4 mph - 0.22 in Rain Heavy Rain
6:53 AM 37.9 °F 27.3 °F 37.9 °F 100% 29.93 in 3.0 mi East 21.9 mph 26.5 mph 0.25 in Rain Heavy Rain
7:02 AM 37.9 °F 27.3 °F 37.9 °F 100% 29.89 in 3.0 mi ENE 21.9 mph - 0.03 in Rain Rain
7:53 AM 37.9 °F 28.2 °F 37.0 °F 97% 29.93 in 4.0 mi East 18.4 mph 26.5 mph 0.22 in Rain Heavy Rain
8:53 AM 36.0 °F 25.0 °F 36.0 °F 100% 29.90 in 4.0 mi East 20.7 mph - 0.32 in Rain Heavy Rain
9:53 AM 37.0 °F 25.6 °F 36.0 °F 96% 29.87 in 4.0 mi East 24.2 mph 28.8 mph 0.23 in Rain Rain
10:18 AM 36.0 °F 24.2 °F 36.0 °F 100% 29.84 in 2.5 mi ENE 24.2 mph 29.9 mph 0.05 in Rain Rain
10:27 AM 36.0 °F 25.0 °F 36.0 °F 100% 29.84 in 4.0 mi East 20.7 mph 32.2 mph 0.06 in Rain Light Rain
10:53 AM 36.0 °F 25.0 °F 36.0 °F 100% 29.85 in 3.0 mi East 20.7 mph 29.9 mph 0.08 in Rain Rain
11:03 AM 36.0 °F 25.3 °F 36.0 °F 100% 29.83 in 2.5 mi ENE 19.6 mph 27.6 mph 0.02 in Rain Rain
11:11 AM 37.0 °F 26.2 °F 36.0 °F 96% 29.83 in 3.0 mi ENE 21.9 mph 28.8 mph 0.02 in Rain Light Rain
11:29 AM 36.0 °F 25.3 °F 36.0 °F 100% 29.83 in 1.8 mi ENE 19.6 mph 27.6 mph 0.07 in Rain Heavy Rain
11:53 AM 36.0 °F 26.0 °F 36.0 °F 100% 29.84 in 2.0 mi ENE 17.3 mph - 0.12 in Rain Light Rain
12:11 PM 37.0 °F 27.0 °F 37.0 °F 100% 29.80 in 3.0 mi East 18.4 mph - 0.02 in Rain Light Rain
12:53 PM 37.9 °F 27.6 °F 37.0 °F 97% 29.79 in 10.0 mi East 20.7 mph 28.8 mph 0.02 in   Overcast
1:53 PM 37.9 °F 28.5 °F 37.9 °F 100% 29.79 in 6.0 mi East 17.3 mph - N/A   Overcast
2:53 PM 39.0 °F 29.3 °F 39.0 °F 100% 29.73 in 10.0 mi East 19.6 mph 31.1 mph N/A   Overcast
3:53 PM 39.9 °F 34.5 °F 37.9 °F 93% 29.80 in 10.0 mi ENE 8.1 mph - N/A   Overcast
4:24 PM 39.9 °F 33.9 °F 39.0 °F 97% 29.78 in 2.0 mi ENE 9.2 mph - N/A   Overcast
4:53 PM 39.9 °F 33.4 °F 39.9 °F 100% 29.80 in 2.0 mi ENE 10.4 mph - N/A   Overcast
5:48 PM 39.2 °F 32.5 °F 39.2 °F 100% 29.78 in 4.0 mi East 10.4 mph - N/A   Overcast
5:53 PM 39.9 °F 33.4 °F 39.9 °F 100% 29.80 in 3.0 mi East 10.4 mph - N/A   Overcast
6:14 PM 39.9 °F 34.5 °F 39.9 °F 100% 29.80 in 7.0 mi East 8.1 mph - N/A   Overcast
6:29 PM 39.0 °F 32.3 °F 39.0 °F 100% 29.80 in 3.0 mi East 10.4 mph - N/A   Overcast
6:43 PM 39.0 °F 32.3 °F 39.0 °F 100% 29.80 in 3.0 mi East 10.4 mph - N/A   Overcast
6:53 PM 39.0 °F 33.4 °F 39.0 °F 100% 29.84 in 3.0 mi ESE 8.1 mph - N/A   Overcast
7:53 PM 37.9 °F 30.5 °F 37.9 °F 100% 29.80 in 8.0 mi East 11.5 mph - N/A   Overcast
8:29 PM 37.9 °F 30.9 °F 37.0 °F 97% 29.79 in 8.0 mi East 10.4 mph - N/A   Overcast
8:53 PM 37.9 °F 30.0 °F 37.0 °F 97% 29.79 in 7.0 mi East 12.7 mph - N/A   Overcast
10:53 PM 37.0 °F 28.1 °F 36.0 °F 96% 29.70 in 5.0 mi East 15.0 mph - N/A   Overcast
11:53 PM 37.0 °F 29.8 °F 37.0 °F 100% 29.73 in 3.0 mi SE 10.4 mph - N/A   Overcast